Location: Aciu?a
(46.2833°N, 22.4500°E)
Time: 12:24:58
(UTC+00:00)

Cosmos 2344 - Pass Details

Date: 25 October 2021
Orbit: 1233 x 3009 km, 63.3° (Epoch: 06 December)

Event Time Altitude Azimuth Distance (km) Brightness Sun altitude
Rises 16:16:40 0° 319° (NW) 4,432 6.9 -9.3°
Reaches altitude 10° 16:19:18 10° 323° (NW) 3,581 6.4 -9.7°
Maximum altitude 16:28:07 64° 45° (NE) 1,937 4.3 -11.3°
Drops below altitude 10° 16:40:20 10° 126° (SE) 4,869 6.1 -13.4°
Sets 16:44:33 0° 129° (SE) 6,119 6.7 -14.1°
